Regional Weather Roundup
Issued by NWS

Home | Current Version | Previous Version | Graphics & Text | Print | Product List | Glossary On
Versions: 1 2 3 4 5 6 7 8 9 10 11 12 13 14 15 16 17 18 19 20 21 22 23 24 25 26 27 28 29 30 31 32 33 34 35 36 37 38 39 40 41 42 43 44 45 46 47 48
000
ASUS45 KBOU 012107
RWRCO

WEATHER ROUNDUP FOR COLORADO
NATIONAL WEATHER SERVICE DENVER/BOULDER CO
200 PM MST SUN FEB 01 2015

NOTE: "FAIR" INDICATES FEW OR NO CLOUDS BELOW 12000 FEET WITH NO
SIGNIFICANT WEATHER AND/OR OBSTRUCTIONS TO VISIBILITY.

COZ001>005-013-030-031-012200-
...NORTHWEST COLORADO...

CITY           SKY/WX    TMP DP  RH WIND       PRES   REMARKS
CRAIG          SUNNY     33  18  53 SW8       30.16F WCI  26
HAYDEN         SUNNY     32  16  51 W8        30.15F WCI  25
MEEKER         SUNNY     33  19  56 CALM      30.15F
MOUNT WERNER   NOT AVBL
STEAMBOAT SPGS SUNNY     30  15  53 SW10      30.14F WCI  21
WALDEN         MOSUNNY   23  12  63 N5        30.08F WCI  17
$$

COZ006>008-011-012200-
...WEST CENTRAL VALLEYS...

CITY           SKY/WX    TMP DP  RH WIND       PRES   REMARKS
GRAND JUNCTION SUNNY     45  28  51 NW5       30.15F
MONTROSE       SUNNY     45  18  34 N7        30.17F
EAGLE          SUNNY     39  10  30 SW17      30.13F
RIFLE          SUNNY     41  20  43 CALM      30.15F
DELTA          SUNNY     47  25  41 CALM      30.16F
NUCLA          SUNNY     43  27  52 W7        30.20F
$$

COZ017>023-064>068-012200-
...SOUTHWEST COLORADO...

CITY           SKY/WX    TMP DP  RH WIND       PRES   REMARKS
DURANGO        MOSUNNY   37  28  70 SW5       30.11F
CORTEZ         SUNNY     49  10  20 NW16G22   30.13S
PAGOSA SPRINGS PTSUNNY   34  24  66 S3        30.11S
TELLURIDE      SUNNY     33   1  26 N3        30.17R
WOLF CREEK PAS SUNNY     23   3  42 NW14G24   30.13S WCI  11
$$

COZ009-010-012-014-032>034-037-058>063-012200-
...CENTRAL COLORADO...

CITY           SKY/WX    TMP DP  RH WIND       PRES   REMARKS
ASPEN          SUNNY     33   7  33 N12G18    30.12F WCI  24
BUENA VISTA    SUNNY     37  -4  17 NE5       30.01R
COPPER MTN     SUNNY     18   0  45 W31G40    30.03R HAZE    WCI  -2
BERTHOUD PASS  NOT AVBL
COTTONWOOD PAS SUNNY     32 -17  11 W23G41    30.00R WCI  19
GUNNISON       SUNNY     36   7  30 W10       30.14S
KREMMLING      SUNNY     32  -2  23 NW14G20   30.13S WCI  22
LEADVILLE      SUNNY     23   1  38 NW17G23   30.04S WCI   9
MONARCH PASS     N/A     12   9  85 MISG      30.13R
SALIDA         SUNNY     41   4  21 CALM      30.09S
SUNLIGHT       SUNNY     23  10  58 CALM        N/A
WILKERSON PASS SUNNY     19  -6  32 NW6G26    30.00R WCI  11
$$

COZ069>075-012200-
...SAN LUIS VALLEY/SANGRE DE CRISTO MOUNTAINS...

CITY           SKY/WX    TMP DP  RH WIND       PRES   REMARKS
ALAMOSA        SUNNY     35  14  42 SE5       30.06F WCI  31
LA VETA PASS   SUNNY     27  14  59 SW12G17   30.01S HAZE    WCI  16
SAGUACHE       SUNNY     34  10  37 N18G31    30.06R WCI  23
$$

COZ035-036-038>040-012200-
...NORTHERN COLORADO FRONT RANGE...

CITY           SKY/WX    TMP DP  RH WIND       PRES   REMARKS
DENVER INTL AP CLOUDY    23  17  78 CALM      30.14S
DMNS CITY PARK   N/A     23  20  87 E7        30.14S WCI  15
AURORA         CLOUDY    21  15  79 E8        30.14S WCI  11
FRONT RANGE AP PTSUNNY   25  18  74 CALM      30.14F
ERIE MUNI ARPT CLOUDY    28  21  75 SE6       30.15S WCI  21
BOULDER MUN AP SUNNY     30  21  69 E3        30.13F
CENTENNIAL     FLURRIES  22  18  85 NE6       30.12S WCI  14
BROOMFIELD     NOT AVBL
FORT COLLINS   PTSUNNY   32  21  64 SE13      30.15F WCI  22
LONGMONT       CLOUDY    32  20  63 SW5       30.17S WCI  27
$$

COZ041-046-047-076>085-087-088-012200-
...PIKES PEAK/PALMER DIVIDE AND SOUTHERN FOOTHILLS...

CITY           SKY/WX    TMP DP  RH WIND       PRES   REMARKS
COLO. SPRINGS  CLOUDY    29  20  69 S10       30.09S WCI  20
A. F. ACADEMY  CLOUDY    27  15  61 N7        30.07S WCI  20
ELLICOTT       SUNNY    N/A N/A N/A NE16      30.08S
FALCON         MOSUNNY   27  16  62 N8        30.08S WCI  19
FORT CARSON    PTSUNNY   31  19  61 S6        30.09R WCI  26
LIMON          FLURRIES  21  16  81 NW17      30.13S WCI   7
MONUMENT HILL  PTSUNNY   25  14  63 N10       30.07R WCI  15
TRINIDAD       CLOUDY    29  22  75 E9        30.10S WCI  20
$$

COZ042>045-048>051-090-091-012200-
...NORTHEAST COLORADO...

CITY           SKY/WX    TMP DP  RH WIND       PRES   REMARKS
GREELEY ARPT   MOSUNNY   30  10  43 E3        30.14F
AKRON          MOSUNNY   22  14  71 N22       30.16F WCI   6
BURLINGTON     MOSUNNY   22  11  62 N23G35    30.17S WCI   6
WRAY           CLOUDY    17  11  80 MISG      30.24F
STERLING       MOSUNNY   27  12  54 N24G31    30.19F WCI  12
HOLYOKE        NOT AVBL
FORT MORGAN    MOSUNNY   27  12  53 N21G26    30.18S WCI  13
$$

COZ086-089-092>099-012200-
...SOUTHEAST COLORADO...

CITY           SKY/WX    TMP DP  RH WIND       PRES   REMARKS
PUEBLO         CLOUDY    35  21  56 VRB3      30.12F
LA JUNTA       PTSUNNY   37  19  48 N10       30.15F
LAMAR          PTSUNNY   33  18  53 N14       30.16F WCI  23
SPRINGFIELD      N/A     33  20  58 N16G26    30.13F WCI  23
$$



USA.gov is the U.S. government's official web portal to all federal, state and local government web resources and services.